ATL-1

Last updated on Sat Oct 10 2020 05:53:53 GMT+0000 (Coordinated Universal Time)

1 44830U 19084G 20283.37625441 .14504533 23319-5 28099-3 0 9997 2 44830 96.9282 155.2233 0011473 239.9810 120.0357 16.46538413 48546

Satellite not in orbit